Starlink 32328

operational
NORAD ID: 62489 Int'l Des: 2025-003 Owner: SPXS Country: US Constellation: starlink
LEOCIRCULAR

Starlink 32328について

説明を読み込み中...

リアルタイム位置

3D地球を読み込み中...

次回通過

高度履歴

Altitude vs Time

uPlot chart will show altitude changes over time

軌道要素

1 62489U 25003C 26033.61111763 .00039808 00000-0 14464-2 0 9998
2 62489 43.0006 127.3418 0002009 273.9450 86.1172 15.27624094 61306
Epoch: Feb 2, 2026 • Age: 21 hours

現在のステータス

高度 486.6 km
速度 7.63 km/s
衛星直下点 40.14°N, 68.46°W
打ち上げ日 Jan 6, 2025
運用期間 1 years
タイプ internet

技術仕様

分類 Payload
質量 730.00 kg
乾燥質量 700.00 kg
総質量 730.00 kg
長さ 0.30 m
直径 4.10 m
スパン 29.00 m
形状 Box + pan
製造者 SPXS
バスタイプ Starlink V2M
フェーズステータス In Orbit
所有者/国 SPXS/US

大規模コンステレーション

Loading constellations...